Weather History for KHWV - June, 2013

Change the Weather History Date:

Friday, June 7, 2013

  Actual Average (KISP) Record (KISP)
Temperature  
Mean Temperature 62 °F 66 °F  
Max Temperature 68 °F 74 °F 94 °F (1999)
Min Temperature 57 °F 57 °F 47 °F (2007)
Degree Days  
Heating Degree Days 2 2  
Month to date heating degree days 19  
Since 1 June heating degree days 19  
Since 1 July heating degree days 5409  
Cooling Degree Days 0 3  
Month to date cooling degree days 18  
Year to date cooling degree days 42  
Since 1 June cooling degree days 18  
Growing Degree Days 12 (Base 50)    
Moisture  
Dew Point 60 °F    
Average Humidity 95    
Maximum Humidity 100    
Minimum Humidity 83    
Precipitation  
Precipitation 4.09 in 0.16 in 4.15 in (2013)
Month to date precipitation 1.14  
Year to date precipitation 20.60  
Snow  
Snow 0.00 in 0.00 in - ()
Month to date snowfall 0.0  
Since 1 July snowfall 24.8  
Snow Depth -    
Sea Level Pressure  
Sea Level Pressure 29.83 in    
Wind  
Wind Speed 6 mph (East)    
Max Wind Speed 20 mph    
Max Gust Speed 36 mph    
Visibility 4 miles    
Events Fog , Rain    
T = Trace of Precipitation, MM = Missing Value Source: NWS Daily Summary

Daily Weather History Graph

Daily Weather History Graph

Search for Another Location

Airport or City:

Trip Planner

Search our weather history database for the weather conditions in past years. The results will help you decide how hot, cold, wet, or windy it might be!

Date:

Astronomy

Jun. 07, 2013 Rise Set
Actual Time 5:20 AM EDT 8:20 PM EDT
Civil Twilight 4:47 AM EDT 8:54 PM EDT
Nautical Twilight 4:04 AM EDT 9:36 PM EDT
Astronomical Twilight 3:15 AM EDT 10:25 PM EDT
Moon 4:41 AM EDT (6/7) 7:32 PM EDT (6/7)
Length of Visible Light 16h 07m
Length of Day
15h 00m
Waning Crescent, 1% of the Moon is Illuminated
Jun 7
Waning Crescent
Jun 8
New
Jun 16
First Quarter
Jun 23
Full
Jun 30
Last Quarter

Hourly Weather History & Observations

Time (EDT) Temp. Dew Point Humidity Pressure Visibility Wind Dir Wind Speed Gust Speed Precip Events Conditions
12:56 AM 61.0 °F 57.0 °F 87% 30.03 in 10.0 mi Variable 4.6 mph - 0.00 in Rain Light Rain
1:56 AM 61.0 °F 55.9 °F 83% 30.01 in 10.0 mi ESE 4.6 mph - 0.00 in Rain Light Rain
2:56 AM 59.0 °F 55.9 °F 90% 30.01 in 10.0 mi Calm Calm - 0.02 in Rain Light Rain
3:06 AM 59.0 °F 55.4 °F 88% 30.00 in 10.0 mi Calm Calm - 0.00 in Rain Light Rain
3:53 AM 59.0 °F 55.4 °F 88% 29.99 in 10.0 mi East 3.5 mph - 0.00 in Rain Light Rain
3:56 AM 59.0 °F 55.9 °F 90% 29.99 in 10.0 mi Calm Calm - 0.00 in Rain Light Rain
4:35 AM 59.0 °F 55.4 °F 88% 29.98 in 10.0 mi East 4.6 mph - 0.00 in Rain Light Rain
4:56 AM 59.0 °F 55.9 °F 90% 29.98 in 9.0 mi Variable 3.5 mph - 0.01 in Rain Light Rain
5:24 AM 59.0 °F 55.4 °F 88% 29.98 in 4.0 mi Variable 3.5 mph - 0.05 in Rain Light Rain
5:56 AM 59.0 °F 57.0 °F 93% 29.98 in 10.0 mi Variable 3.5 mph - 0.06 in Rain Light Rain
6:12 AM 59.0 °F 57.2 °F 94% 29.97 in 10.0 mi Variable 5.8 mph - 0.00 in   Overcast
6:56 AM 59.0 °F 57.9 °F 96% 29.97 in 10.0 mi East 8.1 mph - 0.00 in   Overcast
7:56 AM 60.1 °F 59.0 °F 96% 29.96 in 10.0 mi Variable 5.8 mph - 0.00 in   Overcast
8:56 AM 60.1 °F 57.9 °F 93% 29.96 in 10.0 mi East 9.2 mph - 0.00 in   Overcast
9:14 AM 60.8 °F 57.2 °F 88% 29.95 in 10.0 mi Variable 6.9 mph 18.4 mph N/A   Overcast
9:56 AM 60.1 °F 59.0 °F 96% 29.94 in 6.0 mi Variable 6.9 mph - 0.01 in Rain Light Rain
10:56 AM 60.1 °F 59.0 °F 96% 29.93 in 3.0 mi East 9.2 mph - 0.06 in Rain Rain
11:04 AM 60.8 °F 59.0 °F 94% 29.93 in 2.0 mi East 8.1 mph 16.1 mph 0.02 in Rain Rain
11:19 AM 60.8 °F 59.0 °F 94% 29.93 in 1.5 mi Variable 5.8 mph - 0.07 in Rain Rain
11:36 AM 60.8 °F 59.0 °F 94% 29.92 in 2.5 mi Variable 4.6 mph - 0.12 in Rain Rain
11:56 AM 60.1 °F 59.0 °F 96% 29.92 in 1.8 mi Variable 4.6 mph - 0.17 in Rain Rain
12:32 PM 60.8 °F 59.0 °F 94% 29.91 in 2.5 mi Variable 5.8 mph - 0.15 in Rain Rain
12:56 PM 60.1 °F 59.0 °F 96% 29.91 in 2.5 mi ESE 8.1 mph - 0.20 in Rain Rain
1:04 PM 60.8 °F 59.0 °F 94% 29.90 in 3.0 mi East 6.9 mph - 0.02 in Rain Rain
1:14 PM 60.8 °F 59.0 °F 94% 29.90 in 3.0 mi ESE 9.2 mph - 0.03 in Rain Rain
1:56 PM 60.1 °F 59.0 °F 96% 29.89 in 4.0 mi Variable 6.9 mph - 0.10 in Rain Rain
2:46 PM 60.8 °F 59.0 °F 94% 29.88 in 2.5 mi East 9.2 mph - 0.09 in Rain Rain
2:56 PM 61.0 °F 59.0 °F 93% 29.88 in 1.2 mi Variable 5.8 mph - 0.16 in Rain Heavy Rain
3:23 PM 60.8 °F 60.8 °F 100% 29.87 in 2.5 mi ESE 6.9 mph - 0.14 in Rain Rain
3:47 PM 60.8 °F 60.8 °F 100% 29.85 in 3.0 mi ESE 8.1 mph - 0.21 in Rain Rain
3:56 PM 61.0 °F 60.1 °F 97% 29.85 in 5.0 mi Variable 4.6 mph - 0.22 in Rain Light Rain
4:09 PM 62.6 °F 60.8 °F 94% 29.84 in 2.0 mi ESE 9.2 mph - 0.04 in Rain Rain
4:20 PM 62.6 °F 60.8 °F 94% 29.83 in 1.8 mi East 6.9 mph - 0.09 in Rain Heavy Rain
4:27 PM 62.6 °F 60.8 °F 94% 29.83 in 3.0 mi Variable 6.9 mph - 0.10 in Rain Rain
4:56 PM 62.1 °F 60.1 °F 93% 29.82 in 1.8 mi Variable 6.9 mph - 0.24 in Rain Heavy Rain
5:27 PM 60.8 °F 60.8 °F 100% 29.76 in 0.8 mi Variable 5.8 mph - 0.35 in Rain Heavy Rain
5:36 PM 60.8 °F 60.8 °F 100% 29.75 in 1.2 mi Variable 6.9 mph - 0.42 in Rain Heavy Rain
5:56 PM 61.0 °F 60.1 °F 97% 29.74 in 0.5 mi Variable 5.8 mph - 0.72 in Fog , Rain Heavy Rain
6:08 PM 60.8 °F 60.8 °F 100% 29.74 in 1.0 mi Variable 5.8 mph - 0.15 in Rain Heavy Rain
6:27 PM 60.8 °F 60.8 °F 100% 29.74 in 0.8 mi Variable 6.9 mph - 0.39 in Rain Heavy Rain
6:37 PM 60.8 °F 60.8 °F 100% 29.74 in 1.5 mi Variable 3.5 mph - 0.46 in Rain Heavy Rain
6:52 PM 60.8 °F 60.8 °F 100% 29.73 in 1.0 mi Variable 6.9 mph - 0.59 in Rain Heavy Rain
6:56 PM 61.0 °F 60.1 °F 97% 29.73 in 1.0 mi Calm Calm - 0.62 in Rain Heavy Rain
7:06 PM 62.6 °F 60.8 °F 94% 29.72 in 0.5 mi Variable 3.5 mph - 0.16 in Fog , Rain Heavy Rain
7:11 PM 62.6 °F 60.8 °F 94% 29.74 in 1.2 mi Variable 4.6 mph - 0.17 in Rain Light Rain
7:19 PM 60.8 °F 60.8 °F 100% 29.76 in 0.8 mi NW 8.1 mph - 0.29 in Rain Heavy Rain
7:21 PM 60.8 °F 60.8 °F 100% 29.76 in 0.8 mi NNW 8.1 mph - 0.30 in Rain Heavy Rain
7:26 PM 60.8 °F 60.8 °F 100% 29.74 in 1.0 mi Variable 5.8 mph - 0.34 in Rain Heavy Rain
7:33 PM 60.8 °F 60.8 °F 100% 29.74 in 1.2 mi North 17.3 mph 24.2 mph 0.40 in Rain Heavy Rain
7:48 PM 60.8 °F 57.2 °F 88% 29.75 in 1.2 mi North 10.4 mph - 0.49 in Rain Heavy Rain
7:56 PM 59.0 °F 57.9 °F 96% 29.75 in 1.2 mi North 6.9 mph - 0.54 in Rain Heavy Rain
8:12 PM 59.0 °F 57.2 °F 94% 29.74 in 2.5 mi NNE 6.9 mph 16.1 mph 0.07 in Rain Heavy Rain
8:21 PM 57.2 °F 57.2 °F 100% 29.74 in 3.0 mi NNE 8.1 mph - 0.09 in Rain Rain
8:28 PM 57.2 °F 57.2 °F 100% 29.73 in 2.5 mi NNE 9.2 mph - 0.12 in Rain Rain
8:42 PM 59.0 °F 57.2 °F 94% 29.73 in 1.2 mi Variable 6.9 mph - 0.33 in Rain Heavy Rain
8:46 PM 59.0 °F 57.2 °F 94% 29.74 in 2.0 mi North 10.4 mph - 0.33 in Rain Light Rain
8:56 PM 59.0 °F 57.9 °F 96% 29.73 in 3.0 mi NNE 8.1 mph 16.1 mph 0.39 in Rain Light Rain
9:07 PM 60.8 °F 57.2 °F 88% 29.73 in 8.0 mi Variable 4.6 mph 17.3 mph 0.01 in Rain Light Rain
9:48 PM 62.6 °F 60.8 °F 94% 29.71 in 1.8 mi North 4.6 mph - 0.12 in Rain Heavy Rain
9:54 PM 62.6 °F 60.8 °F 94% 29.71 in 3.0 mi NNE 4.6 mph - 0.12 in Rain Light Rain
9:56 PM 62.1 °F 61.0 °F 96% 29.72 in 6.0 mi Variable 3.5 mph - 0.13 in Rain Light Rain
10:00 PM 62.6 °F 62.6 °F 100% 29.70 in 1.8 mi ENE 4.6 mph - 0.08 in Rain Heavy Rain
10:09 PM 66.2 °F 64.4 °F 94% 29.69 in 4.0 mi SSE 13.8 mph 19.6 mph 0.08 in Rain Light Rain
10:16 PM 66.2 °F 64.4 °F 94% 29.69 in 4.0 mi SSE 13.8 mph 20.7 mph 0.08 in Rain Light Rain
10:56 PM 66.9 °F 66.0 °F 97% 29.67 in 3.0 mi SSE 19.6 mph 26.5 mph 0.11 in Rain Light Rain
11:03 PM 66.2 °F 66.2 °F 100% 29.66 in 1.8 mi SSE 15.0 mph 27.6 mph 0.13 in Rain Heavy Rain
11:18 PM 66.2 °F 66.2 °F 100% 29.65 in 3.0 mi SSE 18.4 mph 35.7 mph 0.28 in Rain Light Rain
11:46 PM 68.0 °F 66.2 °F 94% 29.65 in 4.0 mi SSE 17.3 mph 26.5 mph 0.33 in Rain Rain
11:56 PM 66.9 °F 66.9 °F 100% 29.65 in 5.0 mi SSE 18.4 mph 25.3 mph 0.33 in Rain Light Rain